www.pogodaiklimat.ru

Погода и климат >> Архив погоды >> Гана >> Аким Ода


ПОГОДА в Аким Ода

  • Прогноз погоды в Аким Ода
  • Монитор погоды в Аким Ода

АРХИВ ПОГОДЫ в Аким Ода

Время (UTC), дата Ветер
(напр.,м/с)
 
Видим.   Явления Облачность Т
(С)
Тd
(С)
f
(%)
Тe
(С)
Тes
(С)
Комфортность P
(гПа)
Po
(гПа)
Тmin
(С)
Tmax
(С)
R
(мм)
R24
(мм)
S
(см)
18 16.08 Ю 1 20 км 6/5 360 м
[Cb cap Ac trans]
+27.6 +24.2 82 +39 +39 очень
душно
1011.1 995.1 +31.5
03 17.08 СВ 1 12 км 9/9 360 м
[Sc]
+23.6 +23.0 96 +31 +31 очень
душно
1014.1 997.9
06 17.08 ЮЗ 2 8000 м дымка 9/8 300 м
[Sc Ac trans]
+23.4 +22.6 95 +32 +32 очень
душно
1014.9 998.7 +22.6 2
09 17.08 ЮЗ 2 12 км 9/6 360 м
[Cu Sc Ac trans]
+26.1 +23.2 84 +35 +38 очень
душно
1015.2 999.1
12 17.08 ЮЗ 2 18 км 9/6 400 м
[Cu Sc Ac trans]
+28.5 +23.7 75 +39 +44 очень
душно
1014.2 998.2
15 17.08 ЮЗ 2 24 км 9/4 400 м
[Cu Sc Ac trans]
+30.0 +24.6 73 +43 +46 опасность
перегрева
1011.0 995.2
18 17.08 ЮЗ 2 22 км 8/6 400 м
[Cb cap Ac trans Ci sp]
+26.9 +24.2 85 +37 +37 очень
душно
1011.0 995.0 +30.0
21 17.08 Ю 2 18 км 9/1 360 м
[Sc Ac trans]
+24.9 +22.3 85 +32 +32 очень
душно
1013.1 997.0
06 18.08 ЮЗ 2 18 км 9/8 <50 м
[Sc Ac trans]
+23.1 +22.4 96 +32 +32 очень
душно
1013.3 997.1 +22.6
12 18.08 ЮВ 2 22 км 9/8 400 м
[Cu Sc Ac trans]
+28.5 +23.9 76 +39 +43 очень
душно
1014.1 998.1
15 18.08 ЮЗ 2 25 км 8/6 480 м
[Cu med, cong Ac trans]
+31.0 +23.8 66 +43 +46 опасность
перегрева
1011.0 995.2
18 18.08 Ю 1 20 км 5/4 300 м
[Cu Sc Ac trans Ci sp]
+28.3 +24.5 80 +40 +40 очень
душно
1010.7 994.8 +31.5
21 18.08 Ю 2 20 км 6/5 400 м
[Sc Ac trans Ci sp]
+25.0 +23.1 89 +33 +33 очень
душно
1012.9 996.8
06 19.08 ЮЗ 2 20 км 9/9 360 м
[Sc]
+23.7 +22.7 94 +31 +31 очень
душно
1014.4 998.2 +23.1
09 19.08 ЮЗ 1 20 км 9/5 400 м
[Cu Sc Ac trans]
+26.5 +23.5 84 +36 +40 очень
душно
1015.1 999.0
12 19.08 ЮЗ 1 22 км 9/8 420 м
[Cu Sc Ac trans]
+28.8 +23.9 75 +40 +44 очень
душно
1013.7 997.8
15 19.08 ЮЗ 1 22 км 8/5 420 м
[Cu Sc Ac trans Ci sp]
+31.2 +24.4 67 +43 +48 опасность
перегрева
1009.8 994.0
18 19.08 ЮВ 2 20 км {дождь} 9/5 400 м
[Cu Sc Ac trans Cs]
+28.1 +24.8 82 +40 +40 очень
душно
1011.1 995.2 +31.2 0.0
21 19.08 Ю 2 18 км 9/3 400 м
[Sc Ac trans]
+24.6 +23.5 94 +33 +33 очень
душно
1013.1 997.0
00 20.08 СЗ 1 15 км 9/5 360 м
[Sc Ac trans]
+24.0 +23.0 94 +32 +32 очень
душно
1013.8 997.6
06 20.08 ЮВ 1 18 км 9/6 360 м
[Sc Ac trans]
+23.8 +23.0 95 +32 +32 очень
душно
1013.8 997.6 +22.7 0.0
09 20.08 ЮЗ 2 20 км 9/6 400 м
[Cu Sc Ac trans]
+26.7 +23.0 80 +36 +38 очень
душно
1016.3 1000.2
12 20.08 ЮЗ 1 20 км {дождь} 9/6 450 м
[Cu Sc Ac trans]
+29.2 +23.2 70 +39 +45 очень
душно
1013.3 997.4 0.0
15 20.08 ЮЗ 1 20 км 9/8 420 м
[Cu Sc Ac trans]
+28.9 +24.3 76 +40 +42 очень
душно
1010.7 994.8
18 20.08 ЮЗ 2 16 км в посл. час дождь 9/8 360 м
[Sc Ac trans]
+25.3 +24.6 96 +36 +36 очень
душно
1012.7 996.6 +29.5 7
00 21.08 Ю 2 12 км 9/6 360 м
[Sc Ac trans]
+23.9 +23.2 96 +32 +32 очень
душно
1015.0 998.8
03 21.08 штиль 0 12 км 9/5 360 м
[Sc Ac trans]
+24.0 +23.3 96 +32 +32 очень
душно
1014.7 998.5
06 21.08 штиль 0 15 км 9/9 360 м
[Sc]
+23.7 +23.3 98 +32 +32 очень
душно
1014.7 998.5 +23.3 7
09 21.08 ЮЗ 1 15 км {морось} 9/6 360 м
[Sc Ac trans]
+25.4 +23.9 91 +35 +38 очень
душно
1015.6 999.5
12 21.08 ЮЗ 2 15 км в посл. час морось {дождь} 9/6 400 м
[Cu Sc Ac trans]
+26.6 +24.3 87 +37 +42 очень
душно
1014.8 998.7 3
15 21.08 ЮЗ 1 20 км 9/8 450 м
[Cu Sc Ac trans]
+28.8 +25.0 80 +42 +43 опасность
перегрева
1011.0 995.1
18 21.08 ЮЗ 2 18 км {дождь} 9/8 360 м
[Sc Ac trans]
+29.4 +23.5 71 +40 +40 очень
душно
1012.4 996.5 5
03 22.08 штиль 0 15 км 9/6 360 м
[Sc Ac trans]
+23.5 +22.8 96 +31 +31 очень
душно
1014.4 998.2
06 22.08 штиль 0 18 км 9/0
[Ac trans]
+23.1 +22.0 94 +31 +31 очень
душно
1014.9 998.6 +22.6 5
09 22.08 ЮЗ 1 16 км 9/6 360 м
[Cu Sc Ac trans]
+25.8 +23.3 86 +35 +38 очень
душно
1016.0 999.9
12 22.08 ЮЗ 1 10 км слаб. дождь 9/8 360 м
[Cu Sc Ac As]
+27.8 +24.1 80 +39 +42 очень
душно
1014.9 998.9 0.0
15 22.08 ЮВ 1 20 км 8/5 450 м
[Cu med, cong Ac trans]
+30.0 +24.6 73 +43 +47 опасность
перегрева
1011.2 995.4
18 22.08 ЮЗ 1 20 км 9/4 400 м
[Cu Sc Ac trans Cs]
+28.8 +24.5 78 +41 +41 опасность
перегрева
1012.3 996.4 +30.4
21 22.08 ЮЗ 2 18 км 5/0
[Ac trans Ci sp]
+25.0 +22.9 88 +33 +33 очень
душно
1014.8 998.6
00 23.08 ЮЗ 1 12 км 6/3 360 м
[Sc Ac trans]
+25.0 +22.9 88 +33 +33 очень
душно
1014.2 998.1
03 23.08 ЮЗ 1 18 км 9/0
[Ac trans]
+23.0 +22.4 96 +31 +31 очень
душно
1014.9 998.6
06 23.08 СЗ 2 18 км 9/4 360 м
[Sc Ac trans]
+23.2 +22.6 96 +32 +32 очень
душно
1016.0 999.7 +22.4 0.7
09 23.08 ЮЗ 1 20 км 9/9 360 м
[Sc]
+24.5 +23.0 91 +32 +34 очень
душно
1016.2 1000.0
12 23.08 ЮЗ 1 20 км слаб. морось 9/9 360 м
[Sc]
+25.3 +23.3 89 +34 +37 очень
душно
1014.9 998.8 0.0

 

Местоположение метеостанции Аким Ода (Гана): широта 5.93 долгота -0.98 высота над уровнем моря 140 м.

В архиве по умолчанию представлена погода в Аким Ода за последнюю неделю. Архивные данные за месяц целиком и за предыдущие месяцы, начиная с января 2011 года, Вы можете получить, выбрав интересующий диапазон дат из раскрывающегося списка и нажав кнопку "Ввод!".


*Определитесь, кто Вы:
робот инопланетянин человек

Внимание! Время в таблицах - всемирное. Для получения местного времени необходимо прибавить поправку, которая равна 1 ч.

Смотрите также архив погоды в соседних городах и на ближайших метеорологических станциях:

Погода в Солтпонде (Гана) (82 км)
Погода в Кофоридуа (Гана) (82 км)
Погода в Абетифи (Гана) (86 км)
Погода в Аккра (Гана) (97 км)
Погода в Кумаси (Гана) (111 км)
Погода в Тема (Гана) (114 км)
Погода в Акюсе (Гана) (123 км)
Погода Такоради (Гана) (146 км)
Погода в Сефви Беквай (Гана) (152 км)
Погода в Хо (Гана) (177 км)

Пояснения к столбцам:

Ветер - указаны скорость ветра в м/с - средняя за 10 мин, порывы в срок и между сроками (в фигурных скобках) и направление, откуда дует ветер: С - северный, СВ - северо-восточный, В - восточный, ЮВ - юго-восточный, Ю - южный, ЮЗ - юго-западный, З - западный, СЗ - северо-западный.
Видимость - горизонтальная дальность видимости в метрах или километрах. При видимости от 1 до 10 км при отсутствии осадков обычно наблюдается дымка, при ухудшении видимости до 1 км и менее - туман. В сухую погоду видимость может ухудшаться дымом, пылью или мглою.
Явления - указаны атмосферные явления, наблюдавшиеся в срок или в последний час перед сроком; фигурными скобками обозначены явления, наблюдавшиеся между сроками (за 1-3 часа до срока); квадратными скобками обозначены град или гололедные отложения с указанием их диаметра в мм.
Облачность - указаны через наклонную черту общая и нижняя облачность в баллах и высота нижней границы облаков в метрах; квадратными скобками обозначены формы облаков: Ci - перистые, Cs - перисто-слоистые, Cc - перисто-кучевые, Ac - высококучевые, As - высокослоистые, Sc - слоисто-кучевые, Ns - слоисто-дождевые, Cu - кучевые, Cb - кучево-дождевые. Подробнее классификацию облаков см. в Атласе облаков (PDF).
T - Температура воздуха - температура, измеренная на высоте 2 м над землей.
Td - Температура точки росы - температура, при понижении до которой содержащийся в воздухе водяной пар достигнет насыщения.
f - Относительная влажность воздуха - влажноcть воздуха, измеренная на высоте 2 м над землей.
Te - Эффективная температура - температура, которую ощущает одетый по сезону человек в тени. Характеристика душности погоды. При расчете учитывается влияние влажности воздуха и скорости ветра на теплоощущения человека.
Tes - Эффективная температура на солнце - температура, которую ощущает человек, с поправкой на солнечный нагрев. Характеристика знойности погоды. Зависит от высоты солнца над горизонтом, облачности и скорости ветра. Ночью, в пасмурную погоду, а также при ветре 12 м/с и более поправка равна нулю.
P - Атмосферное давление - приведенное к уровню моря атмосферное давление.
Po - Атмосферное давление - измеренное на уровне метеостанции атмосферное давление.
Tmin - Минимальная температура - минимум температуры воздуха на высоте 2 м над землей.
Tmax - Максимальная температура - максимум температуры воздуха на высоте 2 м над землей.
R - Количество осадков - Количество выпавших осадков за период времени, мм. При наведении курсора мыши на число - период времени, за который выпало указанное количество осадков.
R24 - Количество осадков - Количество выпавших осадков за 24 часа, мм.
S - Снежный покров - Высота снежного покрова, см. При наведении курсора мыши на число - состояние снежного покрова и степень покрытия местности в баллах.